Location: Caserta
(41.0670°N, 14.3330°E)
Time: 04:43:26
(UTC+02:00)

STARLINK-1341 - Pass Details

Date: 04 October 2020
Orbit: 549 x 550 km, 53.0° (Epoch: 20 October)

Event Time Altitude Azimuth Distance (km) Brightness Sun altitude
Exits shadow 04:12:42 18° 33° (NNE) 1,374 6.1 -32.1°
Drops below altitude 10° 04:13:58 10° 41° (NE) 1,825 7.0 -31.9°
Sets 04:16:18 0° 49° (NE) 2,721 8.2 -31.5°
